Starlink 30792

operational
NORAD ID: 58220 Int'l Des: 2023-170 Owner: SPXS Country: US Constellation: starlink
LEOCIRCULAR

关于 Starlink 30792

正在加载描述...

实时位置

正在加载3D地球...

即将过境

高度历史

Altitude vs Time

uPlot chart will show altitude changes over time

两行轨道根数

1 58220U 23170Q 26034.38794652 .00001016 00000-0 92111-4 0 9995
2 58220 43.0042 21.9589 0000814 297.3121 62.7638 15.01725265125121
Epoch: Feb 3, 2026 • Age: 19 hours

当前状态

高度 574.2 km
速度 7.57 km/s
星下点 -42.43°S, 80.09°E
发射日期 Nov 4, 2023
运行时间 2.2 years
类型 internet

技术详情

分类 Payload
质量 730.00 kg
干质量 700.00 kg
总质量 730.00 kg
长度 0.30 m
直径 4.10 m
跨度 29.00 m
形状 Box + pan
制造商 SPXS
平台类型 Starlink V2M
阶段状态 In Orbit
所有者/国家 SPXS/US

大型星座

Loading constellations...